GW6466 Weather Reports


time (UTC)temp
C
wind
direction
speed
KPH
gust
KPH
rain 1hr
cm
rain 24hr
cm
rain mn
cm
humidity
%
barometer
mb
20260906225158 23 89 6.4 22.5 0.00 0.00 0.00 99 753.0
20260906224659 24 112 9.7 24.1 0.00 0.00 0.00 99 753.0
20260906224158 24 52 6.4 9.7 0.00 0.00 0.00 99 753.0
20260906223658 25 87 4.8 11.3 0.00 0.00 0.00 99 753.0
20260906223158 25 52 17.7 22.5 0.00 0.00 0.00 99 753.0
20260906222658 24 89 12.9 16.1 0.00 0.00 0.00 99 753.0
20260906222158 24 76 8.0 14.5 0.00 0.00 0.00 99 753.0
20260906221700 23 40 8.0 14.5 0.00 0.00 0.00 99 753.0
20260906221158 23 111 9.7 17.7 0.00 0.00 0.00 99 753.0
20260906220700 23 100 14.5 17.7 0.00 0.00 0.00 99 753.0
20260906220158 23 62 4.8 17.7 0.00 0.00 0.00 99 753.0
20260906215658 23 74 12.9 22.5 0.00 0.00 0.00 99 753.0
20260906215158 23 123 9.7 20.9 0.00 0.00 0.00 99 753.0
20260906214658 23 94 11.3 24.1 0.00 0.00 0.00 99 753.0
20260906214159 23 92 9.7 22.5 0.00 0.00 0.00 99 754.0
20260906213658 23 91 14.5 24.1 0.00 0.00 0.00 99 754.0
20260906213158 23 72 6.4 22.5 0.00 0.00 0.00 99 754.0
20260906212658 23 166 11.3 24.1 0.00 0.00 0.00 99 754.0
20260906212158 25 63 16.1 29.0 0.00 0.00 0.00 99 754.0
20260906211658 23 99 6.4 25.7 0.00 0.00 0.00 99 753.0
20260906211158 23 37 17.7 29.0 0.00 0.00 0.00 99 754.0
20260906210658 23 107 9.7 20.9 0.00 0.00 0.00 99 754.0
20260906210158 24 90 11.3 22.5 0.00 0.00 0.00 99 754.0
20260906205700 24 90 22.5 29.0 0.00 0.00 0.00 99 754.0
20260906205159 24 88 20.9 33.8 0.00 0.00 0.00 99 754.0
20260906204700 23 79 6.4 16.1 0.00 0.00 0.00 99 754.0
20260906204158 23 52 19.3 25.7 0.00 0.00 0.00 99 754.0
20260906203658 23 89 19.3 25.7 0.00 0.00 0.00 99 754.0
20260906203158 24 114 6.4 25.7 0.00 0.00 0.00 99 754.0
20260906202658 23 48 17.7 22.5 0.00 0.00 0.00 99 754.0
20260906202158 23 43 14.5 25.7 0.00 0.00 0.00 99 754.0
20260906201658 23 70 14.5 24.1 0.00 0.00 0.00 99 754.0
20260906201158 24 310 4.8 27.4 0.00 0.00 0.00 99 754.0
20260906200659 23 62 11.3 22.5 0.00 0.00 0.00 99 754.0
20260906200158 23 351 8.0 25.7 0.00 0.00 0.00 99 754.0
20260906195658 23 92 12.9 17.7 0.00 0.00 0.00 99 754.0
20260906195158 23 55 12.9 24.1 0.00 0.00 0.00 99 754.0
20260906194701 25 42 8.0 25.7 0.00 0.00 0.00 99 754.0
20260906194159 24 61 6.4 27.4 0.00 0.00 0.00 99 754.0
20260906193658 24 50 4.8 27.4 0.00 0.00 0.00 99 754.0
20260906193158 24 54 11.3 16.1 0.00 0.00 0.00 99 754.0
20260906192658 23 82 3.2 9.7 0.00 0.00 0.00 99 754.0
20260906192158 24 79 9.7 20.9 0.00 0.00 0.00 99 754.0
20260906191658 25 9 16.1 25.7 0.00 0.00 0.00 99 754.0
20260906191158 24 68 6.4 16.1 0.00 0.00 0.00 99 754.0
20260906190658 24 66 11.3 12.9 0.00 0.00 0.00 99 754.0
20260906190202 24 54 12.9 24.1 0.00 0.00 0.00 99 754.0
20260906185659 25 53 11.3 17.7 0.00 0.00 0.00 99 754.0
20260906185158 24 13 6.4 20.9 0.00 0.00 0.00 99 754.0
20260906184700 23 128 12.9 16.1 0.00 0.00 0.00 99 754.0
20260906184158 23 88 16.1 29.0 0.00 0.00 0.00 99 754.0
20260906183659 25 180 4.8 12.9 0.00 0.00 0.00 99 754.0
20260906183159 25 13 8.0 12.9 0.00 0.00 0.00 99 755.0
20260906182659 23 70 6.4 14.5 0.00 0.00 0.00 99 754.0
20260906182158 23 61 14.5 17.7 0.00 0.00 0.00 99 755.0
20260906181658 23 141 11.3 22.5 0.00 0.00 0.00 99 755.0
20260906181158 23 55 8.0 16.1 0.00 0.00 0.00 99 755.0
20260906180659 23 50 4.8 12.9 0.00 0.00 0.00 99 755.0
20260906180158 23 98 17.7 20.9 0.00 0.00 0.00 99 755.0
20260906175659 23 76 11.3 17.7 0.00 0.00 0.00 99 755.0
20260906175158 23 109 1.6 16.1 0.00 0.00 0.00 99 755.0
20260906174658 23 85 4.8 12.9 0.00 0.00 0.00 99 755.0
20260906174158 23 92 19.3 22.5 0.00 0.00 0.00 99 755.0
20260906173659 22 177 6.4 12.9 0.00 0.00 0.00 99 756.0
20260906173200 22 52 12.9 22.5 0.00 0.00 0.00 99 756.0
20260906172659 21 88 17.7 24.1 0.00 0.00 0.00 99 756.0
20260906172159 22 141 17.7 20.9 0.00 0.00 0.00 99 756.0
20260906171658 22 74 11.3 16.1 0.00 0.00 0.00 99 756.0
20260906171159 22 101 12.9 24.1 0.00 0.00 0.00 99 756.0
20260906170658 23 29 4.8 11.3 0.00 0.00 0.00 99 756.0
20260906170158 22 220 4.8 14.5 0.00 0.00 0.00 99 756.0
20260906165658 22 42 6.4 12.9 0.00 0.00 0.00 99 756.0
20260906165158 22 120 6.4 9.7 0.00 0.00 0.00 99 756.0
20260906164659 22 136 11.3 14.5 0.00 0.00 0.00 99 756.0
20260906164158 22 98 3.2 16.1 0.00 0.00 0.00 99 756.0
20260906163658 22 98 14.5 17.7 0.00 0.00 0.00 99 756.0
20260906163158 21 84 14.5 20.9 0.00 0.00 0.00 99 756.0
20260906162658 22 359 6.4 12.9 0.00 0.00 0.00 99 756.0
20260906162158 22 57 4.8 11.3 0.00 0.00 0.00 99 756.0
20260906161658 21 71 4.8 14.5 0.00 0.00 0.00 99 756.0
20260906161159 21 120 9.7 12.9 0.00 0.00 0.00 99 756.0
20260906160658 21 108 11.3 14.5 0.00 0.00 0.00 99 756.0
20260906160159 22 144 3.2 14.5 0.00 0.00 0.00 99 756.0
20260906155658 21 52 4.8 11.3 0.00 0.00 0.00 99 756.0
20260906155158 21 49 4.8 9.7 0.00 0.00 0.00 99 756.0
20260906154658 21 136 6.4 12.9 0.00 0.00 0.00 99 756.0
20260906154202 21 25 1.6 9.7 0.00 0.00 0.00 99 755.0
20260906153658 21 122 6.4 9.7 0.00 0.00 0.00 99 755.0
20260906153158 20 193 1.6 4.8 0.00 0.00 0.00 99 756.0
20260906152658 20 233 4.8 4.8 0.00 0.00 0.00 99 756.0
20260906152158 20 231 0.0 3.2 0.00 0.00 0.00 99 756.0
20260906151658 20 218 3.2 4.8 0.00 0.00 0.00 99 755.0
20260906151158 22 147 0.0 4.8 0.00 0.00 0.00 99 755.0
20260906150658 21 203 0.0 1.6 0.00 0.00 0.00 99 755.0
20260906150158 21 139 3.2 4.8 0.00 0.00 0.00 99 755.0
20260906145658 20 173 1.6 3.2 0.00 0.00 0.00 99 755.0
20260906145158 18 189 0.0 1.6 0.00 0.00 0.00 99 756.0
20260906144658 17 212 4.8 8.0 0.00 0.00 0.00 99 756.0
20260906144158 18 205 1.6 1.6 0.00 0.00 0.00 99 756.0
20260906143658 17 187 0.0 0.0 0.00 0.00 0.00 99 756.0
20260906143159 15 192 1.6 3.2 0.00 0.00 0.00 99 755.0
20260906142658 15 223 3.2 8.0 0.00 0.00 0.00 99 756.0
20260906142158 15 206 3.2 8.0 0.00 0.00 0.00 99 755.0
20260906141659 14 216 4.8 4.8 0.00 0.00 0.00 99 756.0
20260906141158 13 227 6.4 9.7 0.00 0.00 0.00 99 755.0
20260906140658 13 232 8.0 9.7 0.00 0.00 0.00 99 756.0
20260906140158 13 227 6.4 8.0 0.00 0.00 0.00 99 755.0
20260906135658 13 228 4.8 8.0 0.00 0.00 0.00 99 755.0
20260906135158 14 239 1.6 3.2 0.00 0.00 0.00 99 755.0
20260906134658 14 237 3.2 4.8 0.00 0.00 0.00 99 755.0
20260906134157 14 246 4.8 8.0 0.00 0.00 0.00 99 755.0
20260906133658 14 236 4.8 4.8 0.00 0.00 0.00 99 755.0
20260906133159 13 262 4.8 8.0 0.00 0.00 0.00 99 755.0
20260906132658 13 225 4.8 4.8 0.00 0.00 0.00 99 755.0
20260906132200 13 261 3.2 4.8 0.00 0.00 0.00 99 755.0
20260906131658 13 229 4.8 4.8 0.00 0.00 0.00 99 755.0
20260906131158 12 220 1.6 3.2 0.00 0.00 0.00 99 755.0
20260906130658 12 251 4.8 8.0 0.00 0.00 0.00 99 755.0
20260906130158 12 228 3.2 4.8 0.00 0.00 0.00 99 755.0
20260906125658 13 235 6.4 8.0 0.00 0.00 0.00 99 755.0
20260906125158 12 231 3.2 3.2 0.00 0.00 0.00 99 755.0
20260906124658 12 238 3.2 4.8 0.00 0.00 0.00 99 755.0
20260906124158 12 226 4.8 4.8 0.00 0.00 0.00 99 755.0
20260906123658 11 244 3.2 4.8 0.00 0.00 0.00 99 755.0
20260906123158 12 260 4.8 9.7 0.00 0.00 0.00 99 755.0
20260906122658 12 238 4.8 8.0 0.00 0.00 0.00 99 755.0
20260906122158 12 237 6.4 8.0 0.00 0.00 0.00 99 755.0
20260906121658 12 217 3.2 4.8 0.00 0.00 0.00 99 755.0
20260906121158 11 212 6.4 8.0 0.00 0.00 0.00 99 755.0
20260906120659 11 232 8.0 9.7 0.00 0.00 0.00 99 755.0
20260906120158 11 227 8.0 9.7 0.00 0.00 0.00 99 755.0
20260906115659 11 227 6.4 9.7 0.00 0.00 0.00 99 755.0
20260906115158 12 231 8.0 9.7 0.00 0.00 0.00 99 755.0
20260906114658 12 230 8.0 9.7 0.00 0.00 0.00 99 755.0
20260906114158 11 224 8.0 8.0 0.00 0.00 0.00 99 755.0
20260906113658 12 218 4.8 8.0 0.00 0.00 0.00 99 755.0
20260906113159 12 230 4.8 4.8 0.00 0.00 0.00 99 755.0
20260906112658 11 236 1.6 3.2 0.00 0.00 0.00 99 755.0
20260906112158 11 234 0.0 1.6 0.00 0.00 0.00 99 755.0
20260906111658 12 233 0.0 3.2 0.00 0.00 0.00 99 755.0
20260906111158 11 233 6.4 9.7 0.00 0.00 0.00 99 755.0
20260906110659 11 242 9.7 11.3 0.00 0.00 0.00 99 755.0
20260906110158 12 234 11.3 12.9 0.00 0.00 0.00 99 755.0
20260906105659 12 216 9.7 12.9 0.00 0.00 0.00 99 755.0
20260906105158 12 230 9.7 11.3 0.00 0.00 0.00 99 755.0
20260906104658 12 228 8.0 9.7 0.00 0.00 0.00 99 755.0
20260906104158 11 231 8.0 9.7 0.00 0.00 0.00 99 755.0
20260906103658 11 227 8.0 9.7 0.00 0.00 0.00 99 755.0
20260906103158 12 242 6.4 9.7 0.00 0.00 0.00 99 755.0
20260906102658 12 202 8.0 11.3 0.00 0.00 0.00 99 755.0
20260906102158 12 224 8.0 8.0 0.00 0.00 0.00 99 755.0
20260906101658 12 229 8.0 11.3 0.00 0.00 0.00 99 755.0
20260906101158 13 229 6.4 8.0 0.00 0.00 0.00 99 755.0
20260906100700 12 216 6.4 8.0 0.00 0.00 0.00 99 755.0
20260906100158 12 233 4.8 8.0 0.00 0.00 0.00 99 755.0
20260906095658 11 232 4.8 9.7 0.00 0.00 0.00 99 755.0
20260906095158 11 232 8.0 9.7 0.00 0.00 0.00 99 755.0
20260906094658 11 245 4.8 8.0 0.00 0.00 0.00 99 755.0
20260906094158 11 219 3.2 8.0 0.00 0.00 0.00 99 755.0
20260906093658 11 217 8.0 11.3 0.00 0.00 0.00 99 755.0
20260906093158 11 230 8.0 11.3 0.00 0.00 0.00 99 755.0
20260906092658 11 227 9.7 11.3 0.00 0.00 0.00 99 755.0
20260906092158 11 238 8.0 9.7 0.00 0.00 0.00 99 755.0
20260906091658 11 251 6.4 11.3 0.00 0.00 0.00 99 755.0
20260906091158 11 236 8.0 9.7 0.00 0.00 0.00 99 755.0
20260906090700 12 232 9.7 12.9 0.00 0.00 0.00 99 755.0
20260906090158 12 233 8.0 11.3 0.00 0.00 0.00 99 755.0
20260906085659 12 233 8.0 11.3 0.00 0.00 0.00 99 755.0
20260906085157 12 223 6.4 8.0 0.00 0.00 0.00 99 755.0
20260906084658 11 218 6.4 11.3 0.00 0.00 0.00 99 755.0
20260906084158 11 235 8.0 9.7 0.00 0.00 0.00 99 755.0
20260906083659 11 223 9.7 11.3 0.00 0.00 0.00 99 755.0
20260906083158 11 220 8.0 11.3 0.00 0.00 0.00 99 755.0
20260906082658 11 237 9.7 11.3 0.00 0.00 0.00 99 755.0
20260906082158 12 225 8.0 9.7 0.00 0.00 0.00 99 755.0
20260906081658 12 221 8.0 12.9 0.00 0.00 0.00 99 755.0
20260906081158 12 216 11.3 12.9 0.00 0.00 0.00 99 755.0
20260906080658 12 216 8.0 11.3 0.00 0.00 0.00 99 755.0
20260906080157 12 229 9.7 11.3 0.00 0.00 0.00 99 755.0
20260906075658 12 225 6.4 11.3 0.00 0.00 0.00 99 755.0
20260906075158 12 204 6.4 9.7 0.00 0.00 0.00 99 755.0
20260906074658 12 230 8.0 9.7 0.00 0.00 0.00 99 755.0
20260906074158 12 231 8.0 9.7 0.00 0.00 0.00 99 756.0
20260906073658 12 223 8.0 9.7 0.00 0.00 0.00 99 756.0
20260906073158 12 224 8.0 9.7 0.00 0.00 0.00 99 756.0
20260906072658 12 221 8.0 9.7 0.00 0.00 0.00 99 756.0
20260906072159 12 214 8.0 9.7 0.00 0.00 0.00 99 756.0
20260906071657 12 218 9.7 11.3 0.00 0.00 0.00 99 756.0
20260906071158 12 227 8.0 8.0 0.00 0.00 0.00 99 756.0
20260906070658 12 223 8.0 9.7 0.00 0.00 0.00 99 756.0
20260906070158 12 223 8.0 9.7 0.00 0.00 0.00 99 755.0
20260906065658 12 229 8.0 11.3 0.00 0.00 0.00 99 756.0
20260906065202 12 237 8.0 9.7 0.00 0.00 0.00 99 756.0
20260906064658 12 230 8.0 11.3 0.00 0.00 0.00 99 756.0
20260906064158 12 221 8.0 11.3 0.00 0.00 0.00 99 756.0
20260906063658 13 240 8.0 9.7 0.00 0.00 0.00 99 756.0
20260906063158 13 257 4.8 8.0 0.00 0.00 0.00 99 756.0
20260906062658 13 298 4.8 9.7 0.00 0.00 0.00 99 756.0
20260906062159 12 277 8.0 9.7 0.00 0.00 0.00 99 756.0
20260906061658 12 246 4.8 4.8 0.00 0.00 0.00 99 756.0
20260906061158 12 238 8.0 9.7 0.00 0.00 0.00 99 756.0
20260906060658 12 235 8.0 9.7 0.00 0.00 0.00 99 756.0
20260906060158 12 228 9.7 11.3 0.00 0.00 0.00 99 756.0
20260906055658 13 234 8.0 9.7 0.00 0.00 0.00 99 756.0
20260906055158 13 237 8.0 9.7 0.00 0.00 0.00 99 756.0
20260906054658 13 243 8.0 8.0 0.00 0.00 0.00 99 756.0
20260906054159 13 258 4.8 4.8 0.00 0.00 0.00 99 756.0
20260906053658 13 236 3.2 4.8 0.00 0.00 0.00 99 756.0
20260906053158 13 243 3.2 8.0 0.00 0.00 0.00 99 756.0
20260906052658 13 261 4.8 4.8 0.00 0.00 0.00 99 756.0
20260906052158 13 273 3.2 8.0 0.00 0.00 0.00 99 756.0
20260906051658 13 238 9.7 9.7 0.00 0.00 0.00 99 756.0
20260906051158 14 210 8.0 9.7 0.00 0.00 0.00 99 756.0
20260906050658 14 221 6.4 8.0 0.00 0.00 0.00 99 756.0
20260906050202 14 251 0.0 3.2 0.00 0.00 0.00 99 756.0
20260906045659 15 231 6.4 11.3 0.00 0.00 0.00 99 756.0
20260906045159 15 221 6.4 9.7 0.00 0.00 0.00 99 756.0
20260906044659 15 238 0.0 1.6 0.00 0.00 0.00 99 756.0
20260906044159 15 222 4.8 8.0 0.00 0.00 0.00 99 757.0
20260906043658 15 231 6.4 8.0 0.00 0.00 0.00 99 756.0
20260906043158 15 193 4.8 8.0 0.00 0.00 0.00 99 756.0
20260906042658 15 225 4.8 4.8 0.00 0.00 0.00 99 756.0
20260906042159 15 233 6.4 11.3 0.00 0.00 0.00 99 756.0
20260906041658 15 248 6.4 12.9 0.00 0.00 0.00 99 756.0
20260906041158 15 245 4.8 12.9 0.00 0.00 0.00 99 756.0
20260906040658 15 220 4.8 12.9 0.00 0.00 0.00 99 756.0
20260906040159 15 273 1.6 4.8 0.00 0.00 0.00 99 756.0
20260906035659 16 312 1.6 8.0 0.00 0.00 0.00 99 756.0
20260906035158 16 285 1.6 11.3 0.00 0.00 0.00 99 756.0
20260906034658 16 260 6.4 11.3 0.00 0.00 0.00 99 756.0
20260906034158 17 294 4.8 14.5 0.00 0.00 0.00 99 756.0
20260906033658 17 201 0.0 0.0 0.00 0.00 0.00 99 756.0
20260906033158 17 217 4.8 12.9 0.00 0.00 0.00 99 756.0
20260906032658 18 217 3.2 4.8 0.00 0.00 0.00 99 756.0
20260906032158 18 229 0.0 3.2 0.00 0.00 0.00 99 756.0
20260906031658 18 220 0.0 3.2 0.00 0.00 0.00 99 756.0
20260906031158 18 284 6.4 8.0 0.00 0.00 0.00 99 755.0
20260906030657 18 326 3.2 4.8 0.00 0.00 0.00 99 755.0
20260906030158 19 359 1.6 4.8 0.00 0.00 0.00 99 755.0
20260906025658 19 64 0.0 1.6 0.00 0.00 0.00 99 755.0
20260906025158 19 45 0.0 3.2 0.00 0.00 0.00 99 755.0
20260906024658 19 21 0.0 0.0 0.00 0.00 0.00 99 755.0
20260906024158 19 169 0.0 0.0 0.00 0.00 0.00 99 755.0
20260906023658 19 64 0.0 0.0 0.00 0.00 0.00 99 755.0
20260906023158 19 10 1.6 1.6 0.00 0.00 0.00 99 755.0
20260906022658 19 41 3.2 4.8 0.00 0.00 0.00 99 755.0
20260906022159 19 28 1.6 3.2 0.00 0.00 0.00 99 755.0
20260906021658 19 45 0.0 0.0 0.00 0.00 0.00 99 755.0
20260906021158 20 71 0.0 0.0 0.00 0.00 0.00 99 755.0
20260906020658 20 49 0.0 0.0 0.00 0.00 0.00 99 755.0
20260906020158 20 111 3.2 4.8 0.00 0.00 0.00 99 755.0
20260906015658 20 78 1.6 3.2 0.00 0.00 0.00 99 755.0
20260906015158 20 50 0.0 0.0 0.00 0.00 0.00 99 755.0
20260906014658 20 62 0.0 3.2 0.00 0.00 0.00 99 755.0
20260906014158 20 85 1.6 3.2 0.00 0.00 0.00 99 755.0
20260906013658 20 56 4.8 4.8 0.00 0.00 0.00 99 755.0
20260906013218 20 105 0.0 1.6 0.00 0.00 0.00 99 755.0
20260906012658 20 149 0.0 0.0 0.00 0.00 0.00 99 755.0
20260906012158 21 83 1.6 3.2 0.00 0.00 0.00 99 755.0
20260906011657 21 108 0.0 0.0 0.00 0.00 0.00 99 755.0
20260906011158 21 144 0.0 3.2 0.00 0.00 0.00 99 755.0
20260906010658 21 139 0.0 3.2 0.00 0.00 0.00 99 755.0
20260906010158 21 91 3.2 9.7 0.00 0.00 0.00 99 755.0
20260906005658 22 185 4.8 4.8 0.00 0.00 0.00 99 755.0
20260906005158 22 79 1.6 8.0 0.00 0.00 0.00 99 755.0
20260906004657 22 154 3.2 3.2 0.00 0.00 0.00 99 755.0
20260906004158 22 89 8.0 11.3 0.00 0.00 0.00 99 755.0
20260906003658 22 53 0.0 0.0 0.00 0.00 0.00 99 755.0
20260906003158 22 114 8.0 12.9 0.00 0.00 0.00 99 755.0
20260906002658 22 83 8.0 12.9 0.00 0.00 0.00 99 755.0
20260906002158 22 79 9.7 14.5 0.00 0.00 0.00 99 755.0
20260906001658 22 142 0.0 1.6 0.00 0.00 0.00 99 755.0
20260906001158 22 80 11.3 12.9 0.00 0.00 0.00 99 755.0
20260906000658 23 74 9.7 14.5 0.00 0.00 0.00 99 755.0
20260906000159 23 109 16.1 20.9 0.00 0.00 0.00 99 755.0
20260905235657 23 84 8.0 14.5 0.00 0.00 0.00 99 755.0
20260905235158 23 86 4.8 20.9 0.00 0.00 0.00 99 755.0
20260905234658 23 150 8.0 16.1 0.00 0.00 0.00 99 755.0
20260905234158 23 92 3.2 14.5 0.00 0.00 0.00 99 755.0
20260905233658 22 45 4.8 12.9 0.00 0.00 0.00 99 755.0
20260905233158 23 109 9.7 12.9 0.00 0.00 0.00 99 755.0
20260905232658 23 149 11.3 20.9 0.00 0.00 0.00 99 755.0
20260905232158 24 54 4.8 14.5 0.00 0.00 0.00 99 754.0
20260905231659 24 91 6.4 11.3 0.00 0.00 0.00 99 755.0
20260905231158 24 97 14.5 22.5 0.00 0.00 0.00 99 755.0
20260905230702 23 132 3.2 12.9 0.00 0.00 0.00 99 754.0
20260905230158 24 87 6.4 14.5 0.00 0.00 0.00 99 755.0
20260905225658 23 21 6.4 9.7 0.00 0.00 0.00 99 754.0